RH
100 100 100 100 100 100 100 100 100 100 100 100 100 93 91 99 89 74 76 87 74 81 85 70 70 75 75
100 100 100 100 100 83 95 100 100 100 100 100 100 100 90 93 91 76 64 68 55 58 68 66 70 68 84
90 90 95 100 100 100 99 100 99 98 99 88 85 89 69 72 79 80 82 75 65 59 63 75 77 80 89
100 98 94 92 99 94 88 88 94 90 89 90 89 89 92 81 77 68 64 67 63 62 64 72 75 76 78
82 76 74 77 84 73 64 62 69 64 61 66 65 65 62 62 60 70 71 72 74 74 72 73 77 81 80
90 88 78 74 76 84 76 73 72 76 71 70 72 84 79 64 73 73 76 78 72 78 88 91 88 91 100
90 94 92 82 72 62 66 64 64 64 69 71 67 62 62 64 68 62 54 57 59 63 61 63 70 76 79
72 78 82 76 71 70 71 61 59 72 76 72 70 70 74 68 62 65 74 77 73 72 61 60 58 61 60
92 92 94 90 89 89 96 97 99 82 77 65 63 61 68 82 91 76 63 62 64 58 54 58 70 82 79
63 67 71 73 77 72 73 79 78 81 90 86 90 88 79 60 59 57 52 52 61 62 72 69 67 61 62
79 75 72 70 77 77 77 79 82 77 69 56 50 49 48 49 50 51 53 57 69 78 72 73 76 74 77
58 58 57 58 59 57 52 48 51 57 62 59 53 50 46 52 65 64 68 76 90 93 85 90 77 77 70
44 46 45 43 41 41 44 51 45 52 67 70 74 70 65 58 58 64 66 83 86 82 64 59 58 52 45
40 40 42 41 44 48 49 50 48 53 52 50 47 52 54 59 62 64 80 70 53 45 40 37 31 30 28
40 40 38 39 39 35 34 36 36 40 46 49 43 37 34 35 33 40 47 36 33 28 26 21 22 23 21
46 44 44 45 45 45 45 46 43 38 35 40 41 33 27 26 25 26 23 22 22 22 21 19 17 18 20
57 57 60 60 56 53 49 39 27 22 22 28 27 23 21 22 25 24 20 20 21 20 20 20 16 16 18
Wind_Speed
104 104 103 104 103 101 104 103 103 103 101 100 101 102 102 100 99 101 101 100 103 105 105 105 106 104 101
106 107 105 104 105 110 111 109 108 108 107 106 107 107 107 106 104 105 106 105 110 109 109 109 111 109 108
113 115 114 113 112 112 112 110 110 110 109 111 110 109 111 110 111 110 112 112 113 116 114 114 115 115 113
112 112 113 114 114 116 117 116 115 116 115 114 114 112 112 114 113 116 116 118 116 115 113 112 114 115 116
114 116 117 116 114 118 118 118 117 120 119 119 119 117 115 116 115 115 116 117 117 116 116 117 117 120 121
117 118 118 118 116 118 116 115 115 116 116 116 116 115 118 119 118 119 120 121 121 121 121 123 123 124 124
114 114 115 116 118 116 116 115 114 113 113 112 112 111 113 112 111 113 113 115 117 118 119 119 120 121 122
121 119 120 120 120 119 118 118 116 116 119 116 118 117 118 120 122 122 125 125 123 124 124 126 127 125 124
126 126 127 128 127 126 125 125 124 124 127 129 129 128 127 128 129 132 134 130 130 130 133 131 129 126 130
130 130 132 131 132 132 132 132 134 132 134 134 135 137 136 130 129 131 133 132 132 129 130 132 132 132 135
134 135 137 137 137 138 138 137 138 139 139 139 138 136 134 133 134 130 129 132 133 135 136 138 142 143 144
133 134 135 135 135 136 135 133 132 132 136 138 137 136 134 134 136 135 135 135 138 142 145 146 144 142 141
128 129 130 130 130 131 132 135 135 135 139 141 141 143 142 141 140 141 142 144 145 144 143 141 139 139 139
132 132 133 134 135 136 137 138 139 140 140 143 142 144 144 143 143 141 143 141 140 140 140 137 134 135 136
134 135 136 136 136 138 137 138 138 139 142 144 144 142 140 138 137 138 138 136 136 135 135 134 132 134 136
140 140 140 140 141 142 142 143 143 143 142 142 143 142 140 136 135 134 134 134 134 134 136 135 132 132 137
148 147 147 147 147 147 148 147 144 142 140 139 138 137 137 134 132 136 136 134 134 135 136 137 132 128 133
Wind_Direction
253 253 254 255 256 257 257 257 257 257 258 260 260 261 262 263 265 268 269 270 271 271 272 273 272 272 274
252 253 254 254 255 257 256 256 258 259 260 262 262 264 264 266 268 267 271 272 271 272 274 275 272 273 273
254 254 255 256 257 258 259 260 260 260 261 262 264 265 266 268 269 270 271 272 272 273 274 272 271 270 270
253 254 256 257 257 257 258 259 260 260 263 264 265 267 267 269 270 271 272 273 273 273 273 272 271 271 272
254 254 255 256 257 258 259 259 260 262 264 264 265 267 269 269 270 270 271 271 272 272 272 272 272 273 273
255 255 256 258 260 260 260 261 262 263 263 265 265 266 267 268 269 270 270 270 271 272 272 272 272 273 274
257 257 258 258 259 261 261 262 264 265 266 265 267 268 269 269 269 271 272 273 273 273 273 274 274 274 274
258 259 259 260 261 262 262 265 266 266 266 267 267 269 269 271 272 272 274 273 273 274 274 273 273 271 271
257 259 260 261 262 262 262 263 265 268 268 268 269 270 272 273 273 272 274 274 273 272 272 271 274 273 273
258 258 259 261 262 262 263 265 266 267 268 269 268 269 271 271 271 270 270 272 273 274 275 275 277 276 276
258 259 260 261 262 263 264 265 265 266 267 267 267 269 269 269 270 272 274 276 279 279 279 279 279 280 279
260 261 261 262 263 263 265 265 266 266 267 269 271 272 272 274 277 277 279 279 279 278 281 281 280 279 278
262 263 263 263 265 266 267 269 269 270 272 273 274 275 277 277 277 278 279 280 280 279 278 278 277 277 278
264 265 266 266 267 268 269 270 271 272 273 274 275 275 276 277 277 277 277 277 277 277 277 277 277 277 277
265 266 266 266 267 268 268 269 271 273 274 276 276 276 275 275 276 276 276 276 276 277 277 276 276 276 277
263 264 266 267 268 269 270 271 272 273 273 274 274 275 275 276 277 277 276 276 276 277 277 276 276 277 278
264 265 266 267 268 270 271 272 272 271 271 272 273 273 273 274 275 277 277 277 276 276 277 278 278 279 279